Location: Boussy-Saint-Antoine
(48.6830°N, 2.5330°E)
Time: 17:23:22
(UTC+02:00)

KKS-1 - Pass Details

Date: 29 July 2019
Orbit: 637 x 650 km, 98.3° (Epoch: 23 August)

Event Time Altitude Azimuth Distance (km) Brightness Sun altitude
Rises 22:37:10 0° 1° (N) 2,953 ? -9.4°
Reaches altitude 10° 22:39:58 10° 342° (NNW) 2,040 ? -9.7°
Maximum altitude 22:42:54 18° 301° (WNW) 1,584 ? -10.1°
Drops below altitude 10° 22:45:51 10° 259° (W) 2,034 ? -10.4°
Sets 22:48:38 0° 240° (WSW) 2,940 ? -10.8°
